STARLINK-36506, 67414

Orbit data source: Space-Track

STARLINK-36506, 67414 is a payload satellite owned by SpaceX/Seattle (US) in LEO that was launched on Mon, 12 Jan 2026 UTC via an FALCON 9 launch vehicle from the Air Force Eastern Test Range (AFETR). Payload-class satellites include a variety of spacecraft equipped with specific instruments for various scientific and technological missions. These include communications satellites like Starlink; space stations such as the ISS; scientific satellites like the Hubble; Earth observation satellites from companies like Planet Labs, Umbra, and HawkEye 360; GPS; miniature CubeSats for education and research; and military/defense satellites.

Loading next visibility...
Identifier
67414, 2026-005L
Orbit
LEO
Country
Flag of USUS
Related business
Manufacturer
SpaceX/Seattle
Mission
Operational Commercial Communications
Bus & Motor
STARLINK V2MO, Unknown motor
Mass
575 kg wet, ~530 kg dry
Launch date (UTC)
2026-01-12 (5 months ago)
Launch vehicle
FALCON 9
Launch site
Air Force Eastern Test Range (AFETR)
Object type
Payload
Rocket body
Debris
Shape & HBR
Box + 2 Pan, 17.7 m
Radar Cross Section
36.964 m², Large (>1 m²)

Expand to show TLE details & history
Last TLE update: 21 hours ago

TLE from 21 hours ago
0 STARLINK-36506
1 67414U 26005L   26170.98660056  .00014641  00000-0  53993-3 0  9999
2 67414  43.0024  20.0736 0001787 274.9501  85.1147 15.27615640 24342
Epoch: 2026-06-19T23:40Z
TLE epoch observation values (Epoch: 2026-06-19T23:40:42.288Z)
Latitude
0.00001°
Longitude
116.6897°
Altitude
482.614 km
Speed
7.626 km/s
True Right ascension
01h 20m 17s
True Declination
0° 00' 00"
Sunlit
Object was in daylight at epoch
Visualization orbit readout
Latitude
Unknown
Longitude
Unknown
Altitude
Unknown
Speed
Unknown
Apparent Right ascension
Unknown
Apparent Declination
Unknown
Sunlit
N/A
Visualization observer readout
Local Sidereal Time
07:14:10
Azimuth
Unknown
Elevation
Unknown
Doppler factor
Unknown
Orbital elements
Apogee altitude
486.114 km
Perigee altitude
483.661 km
Semi-major axis
6,863.024 km
Eccentricity
0.00018
Inclination
43.0024°
RAAN
20.0736°
Arg. of periapsis
274.9501°
True anomaly
85.1351°
Mean anomaly
85.1147°
Eccentric anomaly
85.1249°
Mean motion
3.81742 °/min
Orbital period
94.3 mins
BSTAR
0.00053993
Loading maneuver chart data...
Computing Atmospheric mass density...
Loading historical data...
Loading historical data...
Loading historical data...
Loading historical data...
Loading historical data...
Loading historical data...
Loading historical data...

Documentation

Showing up to 5 results
|